Theta_e
351 350 339 342 344 350 352 347 345 341 333 333 334 336 328 332 341 345 345 343 339 330 332 331 325 326 328 330 332 334 335 333 333 335 335 334 332 335 337 335 341 339 334
350 348 338 341 345 348 351 347 346 336 334 333 335 332 328 334 339 344 345 343 337 326 327 325 326 328 331 333 334 335 336 334 331 333 335 333 329 333 335 332 340 337 332
350 345 343 340 344 348 350 347 345 337 337 335 333 328 329 332 335 341 340 337 333 326 326 327 329 331 336 343 345 345 345 344 343 335 340 341 338 329 332 333 331 333 334
349 344 344 339 342 347 348 347 345 342 343 339 332 327 332 335 337 334 331 331 332 327 330 330 333 338 344 344 343 343 342 341 342 345 344 341 339 331 332 334 331 331 333
348 345 345 334 339 345 346 346 346 345 346 341 329 328 334 336 333 333 331 327 329 328 332 333 334 341 342 340 342 340 339 339 339 344 345 342 341 336 332 333 340 337 332
347 347 338 331 333 337 342 345 346 346 346 341 327 333 335 334 334 335 334 327 328 327 333 334 335 339 338 340 341 339 337 338 341 343 344 344 343 336 333 333 332 332 330
347 348 343 331 331 330 330 335 339 343 342 333 327 334 336 335 335 336 335 329 328 326 328 333 334 334 337 339 340 339 337 336 343 340 345 346 345 338 335 334 333 333 332
347 348 348 332 331 330 328 327 328 330 330 328 330 334 336 335 333 337 337 334 330 328 329 329 330 333 335 337 338 338 337 335 339 340 338 344 347 341 339 337 335 334 333
348 348 347 344 338 331 330 329 329 328 327 327 328 331 333 332 334 337 330 327 327 329 329 329 330 332 333 336 338 337 335 333 334 337 337 334 339 338 340 340 339 336 334
349 349 347 346 343 343 341 330 329 328 326 324 325 328 330 334 337 335 329 327 325 326 330 329 330 330 331 332 332 331 329 327 333 334 332 332 330 325 332 332 334 338 338
349 348 347 346 345 344 343 340 332 330 328 327 330 331 332 341 343 342 338 336 327 325 326 329 331 331 331 329 328 327 326 331 333 332 334 335 327 327 328 330 330 330 334
350 349 348 347 347 346 345 344 343 343 341 341 341 343 341 342 345 343 341 331 330 329 326 325 326 326 324 332 336 332 329 329 328 331 334 335 332 332 332 334 332 330 330
351 349 349 350 349 348 346 346 345 345 345 345 345 345 341 342 343 340 339 338 338 337 338 337 338 335 334 334 332 331 331 332 329 332 335 335 335 337 339 340 334 336 335
351 350 351 352 352 350 348 348 347 347 347 347 347 348 346 344 342 340 339 338 341 338 338 341 338 339 341 340 337 335 337 339 334 335 337 339 342 343 343 343 343 338 339
352 352 352 353 353 353 352 350 348 348 348 347 348 348 346 344 343 341 341 339 337 336 337 336 338 344 345 344 344 340 339 341 344 344 343 345 344 342 340 341 342 343 343
353 353 352 353 354 354 354 351 350 350 349 349 348 348 348 346 346 342 341 339 338 337 336 336 339 347 347 347 349 348 347 347 347 346 345 345 346 343 339 339 339 341 342
353 352 352 353 353 353 353 353 352 350 349 350 349 349 349 348 347 345 340 339 337 336 339 339 344 345 347 348 350 351 351 350 350 349 349 346 346 346 339 336 334 332 331
355 354 353 351 352 353 352 352 350 349 349 349 350 347 349 349 348 347 342 339 337 338 338 343 345 346 346 346 347 348 349 349 348 348 347 346 345 345 340 335 330 326 327
355 355 354 353 351 351 351 351 351 350 351 350 349 349 349 348 347 346 341 339 341 337 336 339 345 348 349 350 347 347 348 349 348 345 346 346 346 344 341 339 329 325 327
350 354 354 354 353 352 351 351 349 347 346 345 346 346 346 345 346 343 340 340 341 337 336 337 342 345 349 350 349 347 346 344 345 344 344 346 345 344 341 339 335 332 327
342 350 353 354 353 351 350 348 347 345 345 340 340 344 344 342 344 342 340 340 342 341 342 343 343 346 348 350 346 344 341 342 341 343 343 345 345 343 341 339 335 330 330
339 341 346 351 352 352 350 349 347 346 346 345 345 345 346 346 346 345 345 347 348 349 350 350 351 348 346 347 343 341 343 339 333 338 341 341 343 342 340 338 332 332 331
340 342 344 348 349 351 350 350 350 349 349 351 350 349 351 351 350 349 349 350 349 351 349 350 350 350 341 343 345 342 341 342 334 334 335 339 338 339 339 334 333 331 332
336 341 343 345 347 350 351 350 350 348 348 348 350 353 354 355 353 354 353 353 353 353 351 345 343 346 345 345 346 344 336 334 338 337 334 334 333 335 338 334 331 330 329
330 333 340 344 347 348 349 350 349 349 347 350 351 350 350 351 352 350 352 353 352 351 350 352 350 350 345 348 343 343 338 334 334 334 335 333 331 329 332 334 333 328 328
325 328 336 344 345 347 347 349 349 349 349 349 348 348 347 348 347 346 346 349 351 351 352 351 352 349 349 346 346 344 337 338 336 336 337 333 333 332 334 334 332 330 326
Wind_Speed
21 26 29 24 19 21 29 29 27 25 26 25 25 25 26 26 24 21 18 16 15 14 13 13 13 14 15 16 15 15 13 12 11 10 9 9 8 7 6 7 9 6 6
27 27 31 25 21 22 30 29 28 26 26 24 24 25 26 25 22 19 16 15 14 13 13 14 14 16 16 15 14 14 12 11 10 9 10 10 7 7 6 6 8 4 5
27 27 28 26 22 24 29 29 28 26 25 23 23 24 25 23 20 17 15 13 13 14 15 15 15 15 13 12 10 10 8 7 7 8 9 5 6 6 6 4 5 4 3
27 27 25 27 24 25 29 29 28 26 23 21 21 24 24 21 19 16 15 13 13 14 15 14 14 13 12 11 9 8 6 4 3 3 3 5 6 4 6 4 3 2 2
27 27 27 29 26 25 28 27 27 25 23 20 21 23 22 20 18 15 14 13 12 13 14 15 13 12 11 9 8 6 4 2 3 2 2 3 4 1 4 3 3 4 2
28 26 31 30 28 26 25 26 25 23 22 20 21 22 21 18 16 13 12 11 11 11 11 11 11 11 9 8 6 4 1 1 3 1 1 2 2 1 2 2 3 3 1
28 26 29 30 29 27 25 24 24 24 22 21 21 20 19 17 14 12 11 11 10 10 11 11 10 9 8 6 6 4 2 1 4 2 1 3 3 3 1 1 1 1 2
28 27 25 29 28 26 26 25 24 23 22 22 21 20 17 15 13 11 9 9 9 9 9 9 9 8 7 7 7 6 5 4 4 5 4 3 7 7 4 4 5 5 4
26 27 26 24 25 25 24 24 23 22 22 22 21 20 18 15 13 10 9 9 9 9 9 9 9 8 8 8 8 8 8 8 7 7 8 6 8 9 8 8 8 8 7
26 25 26 25 23 21 21 23 22 21 20 20 20 19 17 15 13 10 9 8 9 9 9 9 9 8 8 9 10 10 10 9 9 9 8 8 12 10 10 11 11 11 10
25 25 26 26 24 22 20 20 21 21 19 19 18 17 16 12 11 10 10 10 8 8 8 8 8 8 9 9 10 11 11 9 9 9 8 9 10 9 10 11 13 13 13
27 26 26 25 24 23 21 21 20 19 18 18 16 16 13 12 11 10 9 9 8 7 8 8 9 9 8 8 8 9 9 10 10 10 8 9 7 8 9 10 10 11 12
26 26 26 25 25 24 22 21 19 18 17 17 16 15 13 12 11 12 10 9 8 8 7 8 8 7 8 8 8 9 10 11 11 10 10 11 10 10 9 9 7 7 8
25 25 25 24 24 23 20 21 19 18 17 16 16 16 14 13 13 12 11 10 10 9 9 8 8 8 9 9 10 11 10 10 11 11 12 14 10 10 11 11 10 10 12
24 24 23 23 24 23 21 20 19 18 18 17 17 18 16 14 13 12 12 11 11 11 10 9 9 9 8 9 10 10 10 11 12 12 12 12 13 12 11 11 12 14 14
22 23 23 23 22 22 22 21 20 19 18 18 18 18 20 16 14 13 12 12 12 12 11 10 9 9 9 9 10 11 11 12 14 14 14 13 13 12 11 10 11 13 14
21 22 23 24 23 22 21 20 20 19 18 18 16 15 16 16 13 12 13 12 12 11 11 11 10 11 10 10 11 12 12 12 13 14 15 15 15 12 13 10 10 12 13
18 21 22 21 22 22 19 18 17 17 19 19 20 21 16 14 13 11 12 11 11 12 11 12 11 10 11 10 11 14 15 13 14 15 16 17 17 13 9 10 11 11 10
15 17 19 20 19 19 16 15 15 13 13 11 10 10 15 17 14 13 12 12 12 13 14 14 13 12 11 12 9 10 12 12 14 19 22 20 16 13 13 12 11 11 9
14 14 16 18 18 17 17 15 13 13 12 10 9 8 16 13 16 13 15 14 14 15 16 15 14 13 13 12 9 9 11 14 16 16 24 22 18 14 13 12 11 10 11
15 17 17 16 16 17 17 16 15 13 12 15 15 19 18 16 18 14 13 14 16 17 16 13 13 14 15 11 6 9 8 12 17 19 24 20 18 16 15 14 12 11 10
16 17 19 18 17 17 17 15 13 12 13 13 16 19 18 17 15 12 13 14 14 16 15 16 15 14 15 14 12 5 4 7 10 16 21 19 16 16 17 16 14 13 11
16 16 19 20 20 19 18 14 11 10 10 12 14 15 13 15 13 13 12 14 14 16 18 16 16 18 16 13 11 6 3 2 5 13 16 15 13 15 20 18 16 15 13
15 13 14 15 17 17 17 16 15 14 15 13 10 10 10 10 8 8 9 11 12 15 18 17 19 19 17 14 7 9 10 8 3 4 18 14 10 14 21 21 19 18 17
14 10 10 11 12 13 15 16 15 15 11 9 6 4 4 2 0 6 8 10 12 13 16 17 19 20 24 18 17 11 10 9 10 7 7 9 18 22 20 26 25 20 19
17 9 5 5 8 9 10 11 11 8 7 6 4 2 3 4 2 1 3 6 9 15 17 17 19 20 20 20 20 16 18 8 9 13 9 12 14 23 25 23 24 24 21
Wind_Direction
156 157 164 166 164 161 166 166 162 159 155 153 150 149 148 144 142 139 136 134 130 129 129 130 127 121 119 112 110 102 98 95 94 101 102 102 97 99 96 94 70 71 88
152 156 161 163 160 164 168 167 163 160 156 155 151 153 151 147 147 146 142 139 137 131 131 131 130 130 123 116 110 105 101 94 89 91 98 77 92 99 92 91 94 87 93
150 153 156 161 160 163 168 167 163 161 159 155 154 155 153 150 150 149 146 146 144 138 136 136 137 137 128 119 112 107 101 92 86 87 92 106 100 95 97 86 89 82 75
148 150 153 162 162 164 169 167 166 164 160 156 158 158 155 152 151 147 148 152 151 146 142 141 147 146 141 134 127 118 102 88 81 96 97 98 103 88 101 102 91 87 68
148 151 156 162 163 163 169 169 169 167 164 161 162 162 158 154 151 148 150 153 156 154 153 151 155 157 153 143 135 124 101 73 46 34 119 106 107 67 91 100 43 24 95
152 154 159 161 163 163 165 170 172 171 169 167 166 166 162 159 156 153 153 154 158 162 164 160 159 165 167 163 156 149 109 45 45 311 180 192 128 241 75 96 137 187 241
153 154 157 162 162 162 164 168 169 171 172 171 170 169 166 163 162 160 160 159 164 170 174 174 173 180 188 193 193 194 218 337 321 341 296 223 207 263 269 306 307 288 276
154 154 158 163 163 162 163 165 167 169 170 170 172 171 172 170 168 167 168 167 171 175 182 186 189 198 210 215 228 233 253 263 289 288 293 275 243 257 265 273 271 274 273
157 156 157 159 164 164 164 164 165 167 169 170 174 176 176 177 175 176 177 177 181 182 190 197 200 210 221 231 239 247 255 264 275 277 277 278 259 261 259 265 267 270 271
162 162 161 161 162 163 166 167 165 168 170 173 177 180 181 179 180 184 186 187 190 195 202 206 208 215 227 237 247 255 262 273 273 269 268 263 264 258 259 265 265 265 265
169 168 168 167 168 169 167 170 169 169 173 177 178 182 183 182 189 207 200 212 200 209 217 228 233 235 240 250 263 264 268 264 265 265 272 260 266 260 268 281 280 268 261
172 173 172 172 172 172 173 177 175 175 174 176 181 186 186 196 200 200 210 218 217 220 231 240 247 253 264 254 254 282 267 265 265 264 266 269 256 262 275 279 283 272 261
175 175 176 176 177 178 179 180 182 185 184 185 184 187 193 203 209 210 211 216 222 244 238 251 248 248 245 261 267 264 268 269 265 261 261 264 267 266 273 280 277 266 258
179 181 180 182 182 182 185 186 190 191 192 194 191 189 195 199 210 213 218 215 216 220 229 236 246 250 257 260 262 264 264 269 265 263 265 269 264 269 275 269 269 261 255
181 186 187 186 187 185 187 192 195 199 198 199 197 198 199 206 211 210 218 220 226 231 234 242 249 254 258 262 263 264 268 268 267 268 270 269 275 271 270 271 265 264 266
186 186 189 192 193 192 193 194 197 201 202 201 205 206 204 205 210 211 219 224 230 237 242 246 249 254 262 270 275 275 273 274 271 267 268 271 276 269 265 267 273 272 272
193 193 195 195 197 199 200 200 202 204 203 205 211 215 213 210 216 216 220 220 228 235 241 244 243 252 263 271 274 281 283 280 280 269 272 267 267 267 262 259 264 269 271
198 200 201 202 202 204 206 210 212 212 213 211 202 201 211 220 216 218 232 231 228 230 232 240 246 249 255 261 283 284 284 283 280 278 274 275 269 260 261 263 262 264 263
198 203 207 209 210 210 214 216 215 217 221 237 239 210 211 201 211 212 234 234 231 231 232 235 243 244 250 251 246 273 277 277 278 285 281 273 260 251 250 257 259 258 259
210 205 209 210 212 214 215 219 221 223 216 222 245 235 231 209 211 196 228 236 234 235 233 232 241 247 253 261 257 254 278 287 285 282 278 266 255 247 247 245 253 262 259
212 212 209 207 210 209 212 215 215 216 217 232 214 236 236 225 217 210 221 235 237 240 239 234 234 244 252 249 263 268 274 286 298 283 268 260 254 248 249 245 242 245 251
215 218 218 219 215 212 213 217 225 225 222 223 226 229 229 218 219 216 212 232 237 243 242 237 230 234 243 236 257 280 297 308 330 299 280 263 255 254 249 248 244 239 234
213 214 214 217 219 219 216 212 212 214 219 217 226 223 214 221 216 222 228 235 241 247 249 246 238 238 247 226 230 241 263 207 23 289 277 258 247 256 252 248 242 236 230
223 216 222 219 224 220 215 219 217 229 240 238 235 211 200 205 216 219 230 239 247 251 252 257 254 241 241 244 234 228 213 189 160 293 270 270 273 271 263 252 243 236 228
224 234 222 226 222 217 218 223 229 235 226 212 200 206 199 172 37 235 237 243 247 251 251 251 247 240 242 243 246 201 197 208 207 208 262 266 252 249 259 259 251 241 233
243 206 213 216 212 203 210 218 223 213 193 191 211 203 83 120 180 321 284 265 260 249 252 259 256 253 253 255 254 243 224 195 188 224 240 246 243 248 237 240 244 238 234